sat.trackr.live / text

‹ back to catalog

STARLINK-31294

NORAD 58949 · 2024-027U

PAYLOAD ACTIVE UNKNOWN

§ Identity

Operator
Country
US
Launch date
2024-02-10
Launch site
AFWTR
Launch vehicle
Mass (kg)
RCS (m²)

Purposes: comms

External: N2YO · Heavens-Above · Gunter

§ Orbital elements

Epoch: 2026-05-25T04:08:22.500096Z

Period
94.11 min
Inclination
53.1615°
Eccentricity
0.0001269
Mean motion
15.30194251 rev/d
Perigee alt
474.4 km
Apogee alt
476.1 km
Semi-major
6,853.4 km
B*
2.5447e-5
RAAN
314.6866°
Arg perigee
99.1028°
Mean anomaly
261.0116°
Rev number
12,903

§ Raw data

STARLINK-312941 58949U 24027U   26145.17248264  .00000394  00000+0  25447-4 0  99932 58949  53.1615 314.6866 0001269  99.1028 261.0116 15.30194251129032

JSON: /api/v1/satellites/58949 · /tle

For live sub-satellite position, see the globe view (requires WebGL).

§ Visibility from observer

Set your observer location to see the next 7 days of passes ≥ 10°. The values pass through the URL so the page stays shareable.

No JS? Fill the form by hand. The geolocation button needs JavaScript.